CW3186 Weather Reports


time (UTC)temp
C
wind
direction
speed
KPH
gust
KPH
rain 1hr
cm
rain 24hr
cm
rain mn
cm
humidity
%
barometer
mb
20260505125003 12 240 4.8 14.5 0.00 0.00 0.00 86 1014.8
20260505124513 12 209 1.6 8.0 0.00 0.00 0.00 86 1014.8
20260505124007 12 215 1.6 11.3 0.00 0.00 0.00 86 1014.8
20260505123023 12 185 0.0 11.3 0.00 0.00 0.00 86 1014.6
20260505122507 12 28 1.6 12.9 0.00 0.00 0.00 86 1014.6
20260505122009 12 183 3.2 14.5 0.00 0.00 0.00 86 1014.5
20260505121007 12 175 1.6 9.7 0.00 0.00 0.00 86 1014.5
20260505120509 12 315 3.2 9.7 0.00 0.00 0.00 87 1014.5
20260505120017 12 193 0.0 8.0 0.00 0.00 0.00 87 1014.4
20260505115509 12 158 1.6 14.5 0.00 0.00 0.00 87 1014.4
20260505115007 12 181 3.2 17.7 0.00 0.00 0.00 87 1014.3
20260505114509 12 177 3.2 17.7 0.00 0.00 0.00 87 1014.4
20260505114003 12 191 3.2 9.7 0.00 0.00 0.00 87 1014.4
20260505113504 12 160 1.6 11.3 0.00 0.00 0.00 87 1014.4
20260505113014 12 180 3.2 17.7 0.00 0.00 0.00 87 1014.4
20260505112007 11 178 1.6 12.9 0.00 0.00 0.00 88 1014.3
20260505111531 11 153 4.8 11.3 0.00 0.00 0.00 88 1014.3
20260505111008 11 151 1.6 9.7 0.00 0.00 0.00 88 1014.3
20260505110508 11 229 1.6 9.7 0.00 0.00 0.00 88 1014.2
20260505102007 11 147 3.2 12.9 0.00 0.00 0.00 88 1014.0
20260505101504 11 121 4.8 12.9 0.00 0.00 0.00 89 1014.0
20260505101002 11 190 0.0 12.9 0.00 0.00 0.00 89 1014.0
20260505100503 11 164 4.8 11.3 0.00 0.00 0.00 89 1014.0
20260505100005 11 225 1.6 8.0 0.00 0.00 0.00 89 1014.0
20260505095507 11 175 1.6 6.4 0.00 0.00 0.00 89 1014.0
20260505095007 11 175 0.0 8.0 0.00 0.00 0.00 88 1013.9
20260505094510 11 221 1.6 9.7 0.00 0.00 0.00 88 1013.8
20260505094004 11 177 3.2 9.7 0.00 0.00 0.00 88 1013.7
20260505093505 11 165 3.2 12.9 0.00 0.00 0.00 88 1013.7
20260505093012 11 176 3.2 11.3 0.00 0.00 0.00 88 1013.6
20260505092006 11 159 0.0 3.2 0.00 0.00 0.00 88 1013.5
20260505091513 11 121 0.0 8.0 0.00 0.00 0.00 87 1013.4
20260505091007 11 209 0.0 8.0 0.00 0.00 0.00 87 1013.4
20260505090507 11 333 0.0 6.4 0.00 0.00 0.00 87 1013.4
20260505090007 12 110 0.0 6.4 0.00 0.00 0.00 87 1013.4
20260505085503 12 178 0.0 11.3 0.00 0.00 0.00 87 1013.5
20260505085004 12 305 3.2 11.3 0.00 0.00 0.00 87 1013.4
20260505084602 12 219 0.0 4.8 0.00 0.00 0.00 87 1013.4
20260505084004 12 117 1.6 4.8 0.00 0.00 0.00 87 1013.3
20260505083504 12 148 1.6 4.8 0.00 0.00 0.00 87 1013.3
20260505083008 12 172 0.0 4.8 0.00 0.00 0.00 86 1013.2
20260505082504 12 186 1.6 6.4 0.00 0.00 0.00 86 1013.2
20260505082006 12 198 0.0 6.4 0.00 0.00 0.00 86 1013.2
20260505081519 12 192 1.6 4.8 0.00 0.00 0.00 86 1013.1
20260505081006 12 186 0.0 4.8 0.00 0.00 0.00 85 1013.1
20260505080510 12 184 0.0 4.8 0.00 0.00 0.00 85 1013.1
20260505080020 12 190 0.0 9.7 0.00 0.00 0.00 85 1013.0
20260505075510 12 227 0.0 9.7 0.00 0.00 0.00 84 1013.0
20260505075007 12 214 1.6 8.0 0.00 0.00 0.00 84 1013.0
20260505074505 12 235 1.6 6.4 0.00 0.00 0.00 84 1013.0
20260505074004 12 147 0.0 6.4 0.00 0.00 0.00 84 1012.9
20260505073505 13 172 1.6 6.4 0.00 0.00 0.00 84 1012.8
20260505073008 13 192 3.2 9.7 0.00 0.00 0.00 83 1012.8
20260505072505 13 167 1.6 9.7 0.00 0.00 0.00 83 1012.8
20260505072005 13 192 1.6 4.8 0.00 0.00 0.00 83 1012.7
20260505071509 13 150 0.0 3.2 0.00 0.00 0.00 82 1012.7
20260505071005 13 175 0.0 6.4 0.00 0.00 0.00 82 1012.6
20260505070507 13 142 1.6 6.4 0.00 0.00 0.00 82 1012.7
20260505070014 13 232 1.6 9.7 0.00 0.00 0.00 82 1012.5
20260505065507 13 205 1.6 8.0 0.00 0.00 0.00 81 1012.4
20260505065007 13 191 1.6 9.7 0.00 0.00 0.00 81 1012.4
20260505064531 13 173 3.2 9.7 0.00 0.00 0.00 80 1012.3
20260505064010 13 204 0.0 9.7 0.00 0.00 0.00 80 1012.3
20260505063509 13 210 1.6 9.7 0.00 0.00 0.00 79 1012.3
20260505063003 14 180 0.0 9.7 0.00 0.00 0.00 79 1012.3
20260505062507 14 173 3.2 9.7 0.00 0.00 0.00 79 1012.3
20260505062003 14 215 1.6 6.4 0.00 0.00 0.00 78 1012.1
20260505061509 14 186 0.0 12.9 0.00 0.00 0.00 78 1012.1
20260505061004 15 147 3.2 12.9 0.00 0.00 0.00 77 1012.1
20260505060506 15 123 3.2 8.0 0.00 0.00 0.00 76 1012.0
20260505060010 15 337 1.6 8.0 0.00 0.00 0.00 76 1011.9
20260505055507 15 191 1.6 8.0 0.00 0.00 0.00 75 1011.8
20260505055007 15 173 1.6 16.1 0.00 0.00 0.00 74 1011.8
20260505054530 16 117 3.2 16.1 0.00 0.00 0.00 74 1011.7
20260505054008 16 150 3.2 8.0 0.00 0.00 0.00 74 1011.7
20260505053511 16 149 1.6 8.0 0.00 0.00 0.00 73 1011.7
20260505053023 16 192 1.6 3.2 0.00 0.00 0.00 73 1011.6
20260505052508 16 210 1.6 6.4 0.00 0.00 0.00 73 1011.5
20260505052007 16 163 0.0 6.4 0.00 0.00 0.00 73 1011.5
20260505051511 16 229 0.0 4.8 0.00 0.00 0.00 72 1011.5
20260505051004 16 200 0.0 4.8 0.00 0.00 0.00 72 1011.4
20260505050508 16 205 0.0 3.2 0.00 0.00 0.00 71 1011.4
20260505041522 18 263 0.0 4.8 0.00 0.00 0.00 65 1011.1
20260505041009 18 234 0.0 4.8 0.00 0.00 0.00 65 1011.0
20260505040511 18 259 1.6 8.0 0.00 0.00 0.00 64 1010.9
20260505040011 19 205 0.0 8.0 0.00 0.00 0.00 64 1010.8
20260505035507 19 213 1.6 4.8 0.00 0.00 0.00 63 1010.7
20260505035004 20 260 0.0 8.0 0.00 0.00 0.00 62 1010.7
20260505034524 20 246 1.6 8.0 0.00 0.00 0.00 61 1010.7
20260505034004 20 286 0.0 4.8 0.00 0.00 0.00 60 1010.6
20260505033506 20 232 1.6 9.7 0.00 0.00 0.00 59 1010.4
20260505033018 20 264 0.0 11.3 0.00 0.00 0.00 58 1010.3
20260505032507 21 236 3.2 11.3 0.00 0.00 0.00 57 1010.1
20260505032008 21 250 1.6 12.9 0.00 0.00 0.00 56 1010.1
20260505031519 21 230 1.6 12.9 0.00 0.00 0.00 55 1010.0
20260505031007 21 193 3.2 11.3 0.00 0.00 0.00 54 1010.0
20260505030508 22 263 1.6 9.7 0.00 0.00 0.00 53 1009.9
20260505030040 22 265 1.6 11.3 0.00 0.00 0.00 52 1010.0
20260505025513 22 251 3.2 8.0 0.00 0.00 0.00 52 1009.9
20260505025011 22 273 1.6 8.0 0.00 0.00 0.00 51 1009.9
20260505024517 23 226 1.6 11.3 0.00 0.00 0.00 50 1009.9
20260505024004 23 205 1.6 12.9 0.00 0.00 0.00 50 1009.8
20260505023504 23 281 4.8 12.9 0.00 0.00 0.00 48 1009.8
20260505023019 24 240 3.2 9.7 0.00 0.00 0.00 47 1009.8
20260505022506 25 253 1.6 6.4 0.00 0.00 0.00 47 1009.8
20260505022011 25 292 1.6 4.8 0.00 0.00 0.00 46 1009.8
20260505021523 25 208 0.0 4.8 0.00 0.00 0.00 46 1009.8
20260505021007 25 198 1.6 8.0 0.00 0.00 0.00 45 1009.8
20260505020503 26 194 1.6 9.7 0.00 0.00 0.00 45 1009.8
20260505020006 26 283 1.6 9.7 0.00 0.00 0.00 43 1009.8
20260505015504 26 207 0.0 6.4 0.00 0.00 0.00 43 1009.8
20260505015004 26 252 1.6 6.4 0.00 0.00 0.00 1009.8
20260505014513 26 196 1.6 4.8 0.00 0.00 0.00 1009.8
20260505014005 26 212 3.2 4.8 0.00 0.00 0.00 38 1009.8
20260505013504 27 221 1.6 4.8 0.00 0.00 0.00 38 1009.8
20260505013018 27 151 1.6 9.7 0.00 0.00 0.00 39 1009.8
20260505012509 27 161 3.2 11.3 0.00 0.00 0.00 38 1009.8
20260505012001 27 150 3.2 11.3 0.00 0.00 0.00 37 1009.8
20260505011502 27 232 0.0 4.8 0.00 0.00 0.00 37 1009.9
20260505011003 27 247 1.6 11.3 0.00 0.00 0.00 36 1009.9
20260505010502 28 260 3.2 11.3 0.00 0.00 0.00 36 1009.9
20260505010002 28 231 1.6 8.0 0.00 0.00 0.00 35 1010.0
20260505005501 28 274 0.0 6.4 0.00 0.00 0.00 36 1009.9
20260505005003 28 243 1.6 4.8 0.00 0.00 0.00 36 1009.9
20260505004518 28 224 0.0 4.8 0.00 0.00 0.00 36 1009.9
20260505004004 28 236 1.6 6.4 0.00 0.00 0.00 36 1010.0
20260505003504 27 162 1.6 11.3 0.00 0.00 0.00 35 1010.0
20260505003011 28 243 3.2 11.3 0.00 0.00 0.00 35 1010.1
20260505002509 27 247 1.6 9.7 0.00 0.00 0.00 35 1010.0
20260505002008 27 260 4.8 9.7 0.00 0.00 0.00 35 1010.0
20260505001515 27 207 1.6 11.3 0.00 0.00 0.00 36 1010.0
20260505001007 27 241 1.6 11.3 0.00 0.00 0.00 35 1010.1
20260505000507 27 288 6.4 16.1 0.00 0.00 0.00 35 1010.1
20260505000009 27 244 3.2 16.1 0.00 0.00 0.00 35 1010.1
20260504235503 27 161 1.6 9.7 0.00 0.00 0.00 35 1010.1
20260504235004 27 277 4.8 11.3 0.00 0.00 0.00 35 1010.2
20260504234507 27 271 8.0 12.9 0.00 0.00 0.00 34 1010.3
20260504234003 27 327 1.6 12.9 0.00 0.00 0.00 36 1010.2
20260504233504 27 311 4.8 12.9 0.00 0.00 0.00 35 1010.2
20260504233009 27 141 3.2 14.5 0.00 0.00 0.00 34 1010.2
20260504232504 27 330 6.4 14.5 0.00 0.00 0.00 34 1010.3
20260504232005 27 174 3.2 9.7 0.00 0.00 0.00 33 1010.2
20260504231511 27 266 1.6 11.3 0.00 0.00 0.00 33 1010.3
20260504231008 27 182 1.6 11.3 0.00 0.00 0.00 32 1010.2
20260504230507 27 198 3.2 11.3 0.00 0.00 0.00 33 1010.3
20260504230018 27 218 3.2 11.3 0.00 0.00 0.00 33 1010.2
20260504225508 27 197 3.2 12.9 0.00 0.00 0.00 33 1010.3
20260504225003 27 231 4.8 12.9 0.00 0.00 0.00 32 1010.4
20260504224505 27 148 4.8 11.3 0.00 0.00 0.00 32 1010.5
20260504224003 27 200 3.2 11.3 0.00 0.00 0.00 32 1010.6
20260504223504 27 145 4.8 12.9 0.00 0.00 0.00 31 1010.6
20260504223006 27 203 3.2 12.9 0.00 0.00 0.00 31 1010.7
20260504222504 27 165 3.2 14.5 0.00 0.00 0.00 31 1010.8
20260504222007 27 192 3.2 14.5 0.00 0.00 0.00 30 1010.9
20260504221513 27 163 3.2 9.7 0.00 0.00 0.00 32 1010.9
20260504221005 27 283 3.2 9.7 0.00 0.00 0.00 31 1010.9
20260504220505 27 263 3.2 6.4 0.00 0.00 0.00 31 1010.9
20260504220018 27 165 1.6 11.3 0.00 0.00 0.00 34 1010.9
20260504215509 27 167 4.8 11.3 0.00 0.00 0.00 32 1010.9
20260504215015 26 261 4.8 9.7 0.00 0.00 0.00 36 1010.9
20260504214520 26 346 3.2 12.9 0.00 0.00 0.00 35 1011.0
20260504214009 26 255 3.2 12.9 0.00 0.00 0.00 37 1011.2
20260504213504 26 218 1.6 8.0 0.00 0.00 0.00 37 1011.1
20260504213019 26 189 3.2 11.3 0.00 0.00 0.00 36 1011.1
20260504212503 26 246 4.8 11.3 0.00 0.00 0.00 35 1011.2
20260504212004 26 186 3.2 11.3 0.00 0.00 0.00 32 1011.2
20260504211513 26 109 1.6 11.3 0.00 0.00 0.00 31 1011.2
20260504211004 26 203 4.8 14.5 0.00 0.00 0.00 31 1011.3
20260504210512 26 169 3.2 17.7 0.00 0.00 0.00 33 1011.2
20260504210018 26 138 6.4 17.7 0.00 0.00 0.00 33 1011.3
20260504205507 26 209 3.2 12.9 0.00 0.00 0.00 34 1011.3
20260504205007 26 209 1.6 9.7 0.00 0.00 0.00 35 1011.3
20260504204518 26 233 4.8 11.3 0.00 0.00 0.00 33 1011.2
20260504204008 26 186 4.8 11.3 0.00 0.00 0.00 34 1011.2
20260504203513 25 214 1.6 11.3 0.00 0.00 0.00 34 1011.2
20260504203022 26 223 4.8 11.3 0.00 0.00 0.00 35 1011.1
20260504202509 26 218 4.8 9.7 0.00 0.00 0.00 35 1011.1
20260504202004 26 145 3.2 12.9 0.00 0.00 0.00 37 1011.1
20260504201509 26 267 3.2 12.9 0.00 0.00 0.00 36 1011.1
20260504201003 26 126 1.6 8.0 0.00 0.00 0.00 40 1011.2
20260504200503 26 114 1.6 8.0 0.00 0.00 0.00 38 1011.2
20260504200013 25 200 1.6 8.0 0.00 0.00 0.00 39 1011.2
20260504195507 25 216 1.6 8.0 0.00 0.00 0.00 39 1011.1
20260504195004 25 197 1.6 9.7 0.00 0.00 0.00 1011.1
20260504194523 25 331 3.2 9.7 0.00 0.00 0.00 36 1011.1
20260504194009 25 140 1.6 9.7 0.00 0.00 0.00 36 1011.1
20260504193020 25 152 3.2 9.7 0.00 0.00 0.00 36 1011.3
20260504192508 25 161 3.2 9.7 0.00 0.00 0.00 36 1011.3
20260504192009 25 252 3.2 8.0 0.00 0.00 0.00 37 1011.4
20260504191537 25 127 1.6 8.0 0.00 0.00 0.00 38 1011.4
20260504191005 24 139 3.2 16.1 0.00 0.00 0.00 39 1011.3
20260504190508 23 146 1.6 16.1 0.00 0.00 0.00 40 1011.5
20260504190019 23 208 6.4 12.9 0.00 0.00 0.00 1011.5
20260504185503 23 178 4.8 12.9 0.00 0.00 0.00 1011.5
20260504185007 23 121 6.4 12.9 0.00 0.00 0.00 1011.6
20260504184532 24 171 4.8 12.9 0.00 0.00 0.00 1011.5
20260504184010 25 166 4.8 11.3 0.00 0.00 0.00 40 1011.6
20260504183508 24 241 1.6 11.3 0.00 0.00 0.00 40 1011.5
20260504183023 24 177 3.2 12.9 0.00 0.00 0.00 43 1011.5
20260504182512 23 126 6.4 12.9 0.00 0.00 0.00 41 1011.4
20260504182010 23 162 4.8 11.3 0.00 0.00 0.00 43 1011.4
20260504181523 23 173 3.2 11.3 0.00 0.00 0.00 43 1011.5
20260504181010 23 129 4.8 11.3 0.00 0.00 0.00 43 1011.5
20260504180512 23 298 1.6 6.4 0.00 0.00 0.00 47 1011.5
20260504180032 22 50 1.6 9.7 0.00 0.00 0.00 1011.5
20260504175504 22 55 4.8 9.7 0.00 0.00 0.00 53 1011.6
20260504175005 22 68 1.6 4.8 0.00 0.00 0.00 53 1011.6
20260504174513 22 352 1.6 4.8 0.00 0.00 0.00 53 1011.7
20260504174007 22 49 1.6 4.8 0.00 0.00 0.00 54 1011.6
20260504173506 22 58 3.2 6.4 0.00 0.00 0.00 53 1011.6
20260504173020 22 107 3.2 6.4 0.00 0.00 0.00 52 1011.6
20260504172507 22 49 3.2 4.8 0.00 0.00 0.00 55 1011.6
20260504172008 22 105 1.6 4.8 0.00 0.00 0.00 54 1011.7
20260504171522 22 67 1.6 6.4 0.00 0.00 0.00 53 1011.6
20260504171011 21 263 3.2 6.4 0.00 0.00 0.00 50 1011.6
20260504170504 21 203 3.2 6.4 0.00 0.00 0.00 51 1011.6
20260504151002 16 183 0.0 1.6 0.00 0.00 0.00 71 1011.1
20260504150506 16 183 0.0 1.6 0.00 0.00 0.00 71 1011.0
20260504141010 12 183 0.0 0.0 0.00 0.00 0.00 82 1010.8
20260504140506 12 183 0.0 1.6 0.00 0.00 0.00 82 1010.8
20260504130510 11 183 0.0 0.0 0.00 0.00 0.00 82 1010.2